This is the latest recevied weather packets stored in our database for station/object W3JGB. If no packets are shown the sender has not sent any weather packets the latest 10 day(s).
| Time | Temp. | Humidity | Pressure | Rain* | Wind** | Luminosity | Snow |
|---|---|---|---|---|---|---|---|
| 1777980865 | 12.22° C | 95% | 1008.7 hPa | 0 mm | - | 52 W/m² | - |
| 1777980561 | 11.67° C | 95% | 1008.7 hPa | 0 mm | - | 55 W/m² | - |
| 1777980259 | 11.67° C | 95% | 1008.9 hPa | 0 mm | - | 31 W/m² | - |
| 1777979955 | 11.11° C | 97% | 1008.8 hPa | 0 mm | - | 23 W/m² | - |
| 1777979649 | 10.56° C | 97% | 1008.2 hPa | 0 mm | - | 14 W/m² | - |
| 1777979043 | 10° C | 98% | 1008.4 hPa | 0 mm | - | 17 W/m² | - |
| 1777978740 | 10° C | 98% | 1008.4 hPa | 0 mm | - | 20 W/m² | - |
| 1777978436 | 10° C | 98% | 1008.5 hPa | 0 mm | - | 13 W/m² | - |
| 1777978133 | 9.44° C | 98% | 1008.4 hPa | 0 mm | - | 10 W/m² | - |
| 1777977525 | 9.44° C | 99% | 1008.2 hPa | 0 mm | - | 19 W/m² | - |
| 1777977224 | 8.89° C | 99% | 1008.2 hPa | 0 mm | - | 18 W/m² | - |
| 1777976921 | 8.89° C | 99% | 1008.1 hPa | 0 mm | - | 11 W/m² | - |
| 1777976618 | 8.89° C | 99% | 1008.1 hPa | 0 mm | - | 8 W/m² | - |
| 1777976313 | 8.89° C | 99% | 1008.4 hPa | 0 mm | - | 6 W/m² | - |
| 1777976008 | 8.89° C | 99% | 1008.2 hPa | 0 mm | - | 4 W/m² | - |
| 1777975704 | 8.89° C | 99% | 1008.5 hPa | 0 mm | - | 2 W/m² | - |
| 1777975097 | 8.89° C | 99% | 1008.2 hPa | 0 mm | - | 0 W/m² | - |
| 1777974795 | 8.89° C | 98% | 1008.4 hPa | 0 mm | - | 0 W/m² | - |
| 1777973883 | 8.89° C | 99% | 1008.4 hPa | 0 mm | - | 0 W/m² | - |
| 1777973581 | 8.89° C | 99% | 1007.8 hPa | 0 mm | - | 0 W/m² | - |
| 1777973277 | 8.89° C | 99% | 1007.6 hPa | 0 mm | - | 0 W/m² | - |
| 1777972976 | 8.89° C | 99% | 1007.5 hPa | 0 mm | - | 0 W/m² | - |
| 1777972673 | 8.89° C | 98% | 1007.6 hPa | 0 mm | - | 0 W/m² | - |
| 1777972371 | 8.89° C | 98% | 1007.8 hPa | 0 mm | - | 0 W/m² | - |
| 1777972069 | 8.89° C | 98% | 1007.6 hPa | 0 mm | - | 0 W/m² | - |
* Rain latest hour (hover to see other rain measurements)
** Current wind speed in m/s (hover to see current wind gust speed)